[[{"header":{"parameterUnit":"m.s-1","parameterCategory":1,"la1":30.2991,"la2":30.254,"lo1":-89.0895,"lo2":-89.0444,"dy":0.0017,"dx":0.0017,"nx":28,"ny":28,"refTime":"2024-05-27T03:00:00:Z","depth":0,"parameterNumber":2,"parameterNumberName":"U-component_of_WINDS"},"data":[0,0,0,0,0,0,0,0,0,0,0,0,0,0,0,0,0,0,0,0,0,0,0,0,0,0,0,0,0,0,0,0,0,0,0,0,0,0,0,0,0,0,0,0,0,0,0,0,0,0,0,0,0,0,0,0,0,0,2.6384,2.6385,0,2.6528,2.653,2.6531,2.6533,2.6531,2.653,2.6528,2.6679,2.6685,2.6691,0,0,0,0,0,0,0,0,0,0,0,0,0,2.6112,2.6117,2.6383,2.6385,2.6387,2.6528,2.653,2.6532,2.6534,2.6531,2.6529,2.6527,2.6677,2.6684,2.6691,0,0,0,0,0,0,0,0,0,0,0,0,0,2.624,2.6118,2.6383,2.6405,2.6408,2.6527,2.653,2.6532,2.6534,2.6531,2.6529,2.6526,2.6675,2.6684,2.6692,2.68,0,0,2.6718,2.6722,0,0,0,0,0,0,0,0,2.6233,2.625,2.64,2.6404,2.6408,2.651,2.649,2.6622,2.6535,2.6486,2.6528,2.6525,2.6625,2.6638,2.6671,2.6807,2.6814,2.6719,2.6724,2.6728,2.673,0,0,0,0,0,0,0,2.6224,2.6244,2.6441,2.6402,2.6407,2.6408,2.6424,2.6515,2.657,2.649,2.6491,2.6508,2.6627,2.6663,2.6675,2.6816,2.6719,2.6727,2.6732,2.6735,2.7048,2.7051,0,0,0,0,0,0,2.621,2.6237,2.6436,2.6445,2.6312,2.6415,2.6432,2.648,2.6569,2.6579,2.651,2.6507,2.6649,2.6665,2.668,2.6812,2.6728,2.6736,2.6741,2.7045,2.7049,2.7052,0,0,0,0,0,0,2.6205,2.6228,2.643,2.6341,2.6367,2.6423,2.6476,2.6484,2.652,2.6583,2.6594,2.6536,2.6648,2.6668,2.677,2.6818,2.674,2.6748,2.7041,2.7046,2.7051,2.7078,0,0,0,0,0,0,2.6197,2.6226,2.6267,2.6342,2.6372,2.6517,2.6479,2.6489,2.6534,2.6532,2.6611,2.6621,2.6647,2.6757,2.6779,2.6828,2.6754,2.7037,2.7043,2.7049,2.7073,2.7083,2.7091,0,0,0,0,0,2.6187,2.627,2.6269,2.6293,2.6424,2.652,2.6537,2.6564,2.6538,2.658,2.6621,2.6619,2.6809,2.6768,2.6792,2.6845,2.7034,2.7042,2.7049,2.7069,2.7081,2.7091,0,0,0,0,0,0,2.62,2.628,2.628,2.639,2.6448,2.652,2.6574,2.6576,2.6644,2.6639,2.6671,2.6689,2.6791,2.6828,2.6781,2.6954,2.6919,2.6931,2.6926,2.6938,2.6947,2.6936,2.6762,0,0,0,0,0,2.6216,2.6286,2.6352,2.6442,2.6471,2.6518,2.656,2.6576,2.6638,2.6663,2.6712,2.6773,2.6846,2.6894,2.6965,2.7078,2.7095,2.7126,2.7136,2.7143,2.7153,2.7215,2.723,2.7075,2.7075,2.7075,0,0,2.6249,2.6301,2.6344,2.6446,2.6493,2.6566,2.6538,2.6617,2.6671,2.6676,2.6775,2.6812,2.6883,2.699,2.704,2.7025,2.72,2.7152,2.7157,2.7164,2.7224,2.7239,2.7252,2.708,2.7079,2.7079,0,0,2.6346,2.6393,2.6472,2.652,2.6591,2.6621,2.664,2.6712,2.6737,2.6836,2.6841,2.6907,2.7033,2.7083,2.7125,2.724,2.7241,2.7263,2.7311,2.7371,2.7383,2.7394,2.7435,2.745,2.7273,2.7273,2.7273,0,2.6378,2.6487,2.6513,2.6592,2.6637,2.6643,2.6724,2.677,2.6861,2.6892,2.6873,2.7031,2.7079,2.7198,2.7226,2.726,2.7283,2.7254,2.7379,2.7391,2.7401,2.7441,2.7456,2.7275,2.7275,2.7274,2.7274,0,2.6523,2.6599,2.6655,2.6741,2.6793,2.6873,2.6911,2.6961,2.6972,2.7004,2.7106,2.7163,2.7246,2.7276,2.7288,2.7397,2.7385,2.7372,2.7338,2.7418,2.7455,2.7471,2.7278,2.7277,2.7276,2.7276,0,0,2.6633,2.6733,2.6753,2.6792,2.6871,2.693,2.701,2.709,2.7131,2.7194,2.7262,2.7368,2.7356,2.7404,2.7422,2.7475,2.7563,2.7456,2.7458,2.7474,2.7686,2.7695,2.7712,2.7563,2.7566,2.7569,2.768,0,2.6739,2.688,2.6905,2.7029,2.7099,2.7106,2.7175,2.7232,2.7264,2.7329,2.7365,2.7439,2.7419,2.7447,2.75,2.7541,2.7606,2.7533,2.7628,2.7631,2.7609,2.7732,2.7742,2.7844,2.7695,2.7697,2.7699,0,2.6881,2.6945,2.7075,2.7144,2.7174,2.7236,2.7311,2.7373,2.7437,2.7457,2.751,2.7522,2.7606,2.7567,2.7683,2.7633,2.7674,2.77,2.7704,2.7714,2.767,2.7745,2.7877,2.7892,2.7723,2.7721,2.7719,0,2.6947,2.7067,2.716,2.7194,2.7276,2.732,2.7356,2.7418,2.7464,2.753,2.756,2.7635,2.7677,2.7735,2.7767,2.7736,2.7881,2.7845,2.7901,2.79,2.7931,2.7929,2.8071,2.7957,2.7957,2.7957,2.7956,0,2.7062,2.7141,2.7191,2.7249,2.7338,2.7367,2.7454,2.7491,2.7545,2.761,2.7621,2.7682,2.7721,2.7787,2.7813,2.7906,2.7924,2.7943,2.7949,2.7942,2.794,2.7969,2.7963,2.7961,2.796,2.7959,2.7958,0,2.7152,2.7188,2.729,2.736,2.7379,2.7442,2.7502,2.7558,2.759,2.7672,2.7693,2.7744,2.7823,2.786,2.7959,2.7976,2.8081,2.8082,2.8059,2.8061,2.8114,2.8108,2.8281,2.8305,2.8174,2.8176,2.8177,0,2.7223,2.7283,2.7359,2.7403,2.744,2.7511,2.7557,2.7589,2.7637,2.7714,2.7761,2.7841,2.7906,2.8032,2.8078,2.8153,2.8157,2.8212,2.8168,2.8159,2.8157,2.8153,2.8159,2.8219,2.8221,2.8222,2.8223,0,2.7344,2.7359,2.7426,2.7499,2.7554,2.7613,2.7671,2.7707,2.7747,2.7801,2.7882,2.7932,2.8032,2.811,2.8189,2.8227,2.8232,2.8236,2.8253,2.8246,2.823,2.8239,2.808,2.8232,2.8231,2.823,2.823,2.8229,2.7427,2.7481,2.7542,2.7616,2.7663,2.7717,2.7773,2.7811,2.7878,2.7961,2.7976,2.8061,2.8124,2.8229,2.8271,2.8338,2.8326,2.835,2.8357,2.8362,2.8365,2.8219,2.8353,2.8353,2.8353,2.8352,2.8352,0,2.7549,2.7588,2.7656,2.7736,2.7794,2.7792,2.7857,2.7906,2.798,2.8038,2.8101,2.8193,2.8269,2.8321,2.8399,2.8443,2.8447,2.8462,2.8459,2.8468,2.8372,2.8349,2.8457,2.8457,2.8457,2.8457,2.8457,2.8457,2.7619,2.771,2.7733,2.7847,2.7887,2.797,2.8006,2.8057,2.8102,2.8204,2.8267,2.83,2.8356,2.8437,2.8507,2.852,2.8548,2.8564,2.8577,2.8486,2.8475,2.8464,2.8443,2.857,2.857,2.8668,2.8669,2.8669]},{"header":{"parameterUnit":"m.s-1","parameterCategory":1,"la1":30.2991,"la2":30.254,"lo1":-89.0895,"lo2":-89.0444,"dy":0.0017,"dx":0.0017,"nx":28,"ny":28,"refTime":"2024-05-27T03:00:00:Z","depth":0,"parameterNumber":3,"parameterNumberName":"V-component_of_WINDS"},"data":[0,0,0,0,0,0,0,0,0,0,0,0,0,0,0,0,0,0,0,0,0,0,0,0,0,0,0,0,0,0,0,0,0,0,0,0,0,0,0,0,0,0,0,0,0,0,0,0,0,0,0,0,0,0,0,0,0,0,3.6597,3.6598,0,3.6668,3.6669,3.667,3.6653,3.6651,3.665,3.6649,3.6717,3.672,3.6723,0,0,0,0,0,0,0,0,0,0,0,0,0,3.6444,3.6447,3.6597,3.6598,3.6599,3.6668,3.6669,3.667,3.6653,3.6651,3.665,3.6648,3.6716,3.672,3.6724,0,0,0,0,0,0,0,0,0,0,0,0,0,3.6512,3.6448,3.6597,3.6599,3.66,3.6668,3.6669,3.667,3.6653,3.6651,3.6649,3.6647,3.6715,3.672,3.6724,3.6793,0,0,3.6738,3.674,0,0,0,0,0,0,0,0,3.6508,3.6518,3.6598,3.6599,3.66,3.665,3.664,3.6711,3.6654,3.6633,3.6649,3.6646,3.6696,3.6702,3.672,3.6796,3.6799,3.6739,3.6742,3.6744,3.6745,0,0,0,0,0,0,0,3.6503,3.6514,3.6625,3.6599,3.66,3.6595,3.6603,3.6653,3.6675,3.6635,3.6634,3.6642,3.6696,3.6715,3.6721,3.68,3.6739,3.6743,3.6746,3.6747,3.6939,3.6941,0,0,0,0,0,0,3.6498,3.6511,3.6623,3.6627,3.6548,3.66,3.6608,3.6636,3.6674,3.6678,3.6644,3.6641,3.6709,3.6716,3.6724,3.6809,3.6744,3.6748,3.675,3.6937,3.6939,3.6942,0,0,0,0,0,0,3.6495,3.6508,3.662,3.6569,3.6582,3.6604,3.6636,3.6638,3.6657,3.6682,3.6685,3.666,3.6707,3.6717,3.6777,3.6811,3.675,3.6754,3.6934,3.6937,3.6941,3.6978,0,0,0,0,0,0,3.6491,3.6507,3.6534,3.6569,3.6585,3.6673,3.6638,3.6641,3.6666,3.6663,3.6697,3.6701,3.6706,3.677,3.6781,3.6816,3.6758,3.6931,3.6935,3.694,3.6974,3.6982,3.699,0,0,0,0,0,3.6485,3.6541,3.6536,3.6549,3.662,3.6675,3.6684,3.669,3.6668,3.6696,3.6712,3.67,3.6805,3.6776,3.6789,3.6825,3.6929,3.6934,3.6939,3.697,3.6981,3.6989,0,0,0,0,0,0,3.6507,3.6545,3.654,3.6609,3.6639,3.6672,3.6706,3.67,3.6736,3.6732,3.6737,3.6745,3.6806,3.6821,3.6789,3.6895,3.6864,3.6872,3.6883,3.6893,3.6901,3.6896,3.6762,0,0,0,0,0,3.652,3.6563,3.6593,3.6651,3.6666,3.6684,3.6708,3.671,3.6741,3.6753,3.6773,3.6803,3.6842,3.6868,3.6906,3.6976,3.6984,3.7007,3.7015,3.7021,3.7028,3.7068,3.7079,3.6959,3.6959,3.6959,0,0,3.6547,3.6573,3.6599,3.6656,3.6679,3.6723,3.6694,3.6741,3.6773,3.676,3.6818,3.6834,3.6867,3.6933,3.6962,3.6947,3.7063,3.7028,3.7033,3.7036,3.7074,3.7086,3.7096,3.6963,3.6962,3.6961,0,0,3.6618,3.6642,3.6694,3.6719,3.6755,3.6767,3.6779,3.6814,3.6825,3.6884,3.6875,3.6913,3.6981,3.7005,3.7026,3.7109,3.71,3.7121,3.7163,3.7201,3.7211,3.7219,3.725,3.7261,3.7128,3.7128,3.7128,0,3.6647,3.6713,3.672,3.6769,3.6794,3.6786,3.6839,3.6862,3.6908,3.6926,3.6908,3.6995,3.7017,3.7089,3.7109,3.7126,3.7141,3.7118,3.7209,3.7217,3.7225,3.7255,3.7266,3.7131,3.713,3.713,3.713,0,3.6747,3.6793,3.683,3.6878,3.6907,3.6957,3.6972,3.7,3.7001,3.7014,3.7075,3.7101,3.7144,3.7161,3.7161,3.7234,3.7224,3.7208,3.7176,3.7239,3.7267,3.7278,3.7134,3.7133,3.7132,3.7132,0,0,3.6833,3.6886,3.69,3.6922,3.6963,3.6999,3.7048,3.7093,3.7118,3.7151,3.7193,3.7252,3.7238,3.7262,3.7264,3.7298,3.7364,3.7278,3.7279,3.7294,3.7448,3.7461,3.7473,3.7358,3.736,3.7362,3.7445,0,3.6909,3.6999,3.7008,3.7088,3.7131,3.7125,3.7168,3.7198,3.7212,3.725,3.7264,3.7307,3.7285,3.73,3.7333,3.7349,3.7395,3.7343,3.7398,3.7399,3.7391,3.7488,3.7501,3.7578,3.7456,3.7458,3.7459,0,3.701,3.7049,3.7134,3.7171,3.7189,3.7228,3.7271,3.7307,3.7341,3.7349,3.7377,3.7375,3.7426,3.7393,3.7463,3.7428,3.7451,3.7462,3.7465,3.7471,3.7434,3.7498,3.7603,3.7615,3.7476,3.7475,3.7474,0,3.7067,3.7139,3.72,3.7219,3.7263,3.7291,3.7311,3.7342,3.7369,3.7406,3.7424,3.7465,3.7488,3.752,3.7529,3.7504,3.76,3.7567,3.7608,3.7608,3.7629,3.7628,3.7741,3.7642,3.7642,3.7641,3.7641,0,3.7152,3.7204,3.7227,3.7264,3.7323,3.7332,3.739,3.7408,3.7436,3.7477,3.7473,3.751,3.752,3.756,3.7567,3.7626,3.7635,3.7643,3.7645,3.7644,3.7644,3.766,3.7655,3.7644,3.7644,3.7643,3.7643,0,3.7225,3.7242,3.7308,3.7345,3.7356,3.7398,3.7429,3.7465,3.7479,3.7531,3.7543,3.7564,3.7611,3.7624,3.7679,3.7684,3.7753,3.7748,3.7742,3.7743,3.7784,3.778,3.7912,3.7931,3.7818,3.7819,3.782,0,3.7278,3.7319,3.7362,3.739,3.7411,3.7455,3.7484,3.7494,3.7524,3.7566,3.7597,3.7644,3.7682,3.7756,3.7776,3.7818,3.7816,3.7859,3.7822,3.7821,3.7818,3.7817,3.7821,3.7867,3.7868,3.7869,3.7869,0,3.7372,3.7379,3.7421,3.7467,3.7501,3.7537,3.7571,3.7594,3.7609,3.7643,3.7692,3.7721,3.7779,3.7825,3.7869,3.7887,3.7882,3.7881,3.7893,3.7894,3.7889,3.7894,3.7763,3.7878,3.7877,3.7877,3.7876,3.7876,3.7438,3.7475,3.7512,3.7559,3.7586,3.7619,3.7656,3.7675,3.7717,3.7766,3.7769,3.7822,3.7856,3.7914,3.7935,3.7976,3.7963,3.798,3.7985,3.7989,3.7994,3.7882,3.7984,3.7984,3.7983,3.7983,3.7983,0,3.7533,3.7557,3.7601,3.765,3.7688,3.768,3.7718,3.775,3.7797,3.783,3.7868,3.7925,3.797,3.7994,3.8039,3.8068,3.8066,3.8079,3.8078,3.8083,3.8002,3.7988,3.808,3.808,3.808,3.808,3.808,3.808,3.7587,3.765,3.7662,3.7738,3.7761,3.7815,3.7837,3.7868,3.7894,3.7958,3.7997,3.8013,3.8042,3.809,3.8131,3.8137,3.8154,3.8169,3.8174,3.8098,3.8088,3.8079,3.8066,3.8173,3.8173,3.8252,3.8252,3.8253]}]]